CORVUS BC1

Last updated on Sun Apr 12 2026 00:03:55 GMT+0000 (Coordinated Universal Time)

1 42847U 17042Y 26101.42520551 .00002044 00000+0 14394-3 0 9996 2 42847 97.4024 266.1859 0010982 322.6951 37.3512 15.06062261477040
UTC large
Height (km)
Speed (km/s)
/
Latitude / Longitude
Inclination (degrees)
Orbital Period (minutes)
Azimuth
Elevation
Range (km)
Doppler Factor

Next 0 passes for location: London (51.5072 / 0.1276)

Sorry there are no passes over London.
CORVUS BC1